Temp
6 5 5 4 4 3 3 3 3 2 2 2 2 2 1 1 0 0 -0 -1 -1 -1 -2 -2 -2 -2 -2 -2 -2 -2 -3 -3
6 5 5 4 4 4 3 3 2 2 2 2 1 1 1 0 -0 -1 -1 -1 -2 -2 -1 -2 -2 -2 -2 -2 -3 -4 -4 -4
6 6 5 5 4 3 3 2 2 2 1 1 1 0 -0 -1 -1 -2 -2 -2 -2 -2 -2 -2 -1 -2 -2 -4 -5 -5 -5 -5
5 5 4 4 4 3 2 2 1 0 0 -1 -1 -1 -1 -1 -2 -2 -2 -2 -2 -1 -1 -2 -3 -4 -5 -5 -5 -6 -6 -6
5 5 4 3 2 2 1 1 0 0 -0 -1 -1 -1 -1 -1 -1 -1 -1 -1 -1 -2 -3 -4 -5 -6 -6 -7 -6 -7 -7 -7
4 4 3 3 2 1 1 0 0 0 -0 -0 -0 -0 -0 -1 -1 -1 -1 -2 -2 -4 -5 -6 -6 -7 -7 -8 -8 -7 -7 -7
3 3 3 2 2 1 1 0 0 -0 -0 -0 -1 -1 -1 -1 -2 -2 -3 -4 -4 -6 -6 -6 -6 -8 -8 -8 -8 -8 -8 -8
3 3 2 1 1 0 0 -0 -0 -0 -1 -2 -2 -2 -3 -3 -3 -5 -6 -6 -6 -6 -6 -7 -8 -8 -9 -10 -9 -10 -10 -10
2 2 1 1 0 -0 -0 -1 -1 -2 -2 -2 -2 -3 -4 -5 -6 -7 -7 -7 -7 -7 -8 -9 -10 -10 -11 -11 -11 -11 -11 -11
1 0 -0 -0 -0 -1 -1 -1 -2 -2 -2 -2 -3 -4 -5 -5 -5 -6 -6 -7 -7 -8 -10 -10 -10 -10 -12 -11 -12 -12 -11 -12
0 0 -0 -1 -1 -1 -2 -2 -2 -2 -3 -4 -4 -5 -6 -6 -6 -7 -8 -8 -10 -11 -11 -11 -10 -11 -12 -12 -13 -12 -13 -12
0 -1 -1 -1 -2 -2 -2 -2 -3 -3 -4 -4 -5 -6 -7 -7 -7 -8 -8 -9 -10 -10 -11 -11 -12 -13 -12 -13 -13 -14 -13 -14
-0 -1 -2 -2 -3 -2 -3 -3 -4 -4 -5 -5 -6 -7 -7 -7 -7 -8 -8 -9 -10 -11 -12 -13 -13 -14 -14 -13 -14 -14 -14 -15
-1 -1 -1 -2 -3 -4 -3 -3 -4 -5 -6 -6 -7 -7 -7 -8 -8 -9 -9 -10 -11 -12 -13 -13 -14 -14 -14 -15 -15 -14 -15 -16
-1 -2 -2 -3 -4 -3 -3 -4 -5 -5 -6 -7 -8 -8 -9 -9 -9 -10 -11 -11 -12 -13 -14 -14 -14 -15 -15 -15 -15 -16 -16 -16
-2 -3 -3 -4 -3 -3 -4 -5 -6 -6 -8 -8 -9 -9 -9 -10 -10 -11 -11 -12 -13 -14 -14 -15 -15 -16 -16 -16 -16 -16 -16 -17
-2 -2 -3 -3 -4 -5 -5 -6 -7 -8 -8 -9 -9 -10 -10 -11 -11 -11 -12 -12 -13 -15 -15 -15 -16 -16 -16 -16 -16 -16 -16 -16
-3 -2 -3 -4 -5 -5 -6 -7 -8 -9 -9 -9 -10 -11 -11 -11 -12 -12 -13 -13 -14 -15 -15 -15 -16 -16 -17 -16 -16 -16 -16 -16
-3 -3 -4 -5 -5 -6 -8 -9 -9 -9 -10 -10 -11 -12 -12 -12 -12 -13 -13 -14 -14 -15 -15 -16 -17 -17 -17 -16 -16 -16 -16 -16
Height
3166 3168 3170 3170 3170 3170 3169 3168 3164 3161 3163 3158 3160 3159 3157 3155 3154 3152 3149 3146 3143 3140 3136 3132 3127 3123 3119 3114 3109 3106 3102 3097
3165 3167 3169 3170 3169 3170 3167 3165 3162 3161 3160 3158 3156 3155 3153 3152 3150 3147 3144 3140 3136 3132 3127 3124 3119 3113 3108 3103 3099 3095 3093 3088
3163 3166 3168 3169 3167 3166 3165 3163 3160 3159 3157 3155 3153 3152 3150 3147 3144 3142 3138 3133 3129 3125 3120 3115 3109 3104 3099 3093 3089 3085 3082 3077
3165 3166 3166 3165 3165 3164 3161 3159 3157 3156 3154 3153 3151 3148 3145 3142 3139 3134 3130 3125 3120 3115 3110 3104 3098 3093 3088 3084 3080 3076 3072 3069
3163 3162 3161 3160 3160 3159 3158 3157 3156 3154 3152 3149 3146 3144 3141 3137 3133 3128 3123 3116 3111 3105 3099 3093 3088 3083 3078 3075 3069 3064 3060 3056
3161 3161 3160 3159 3158 3158 3156 3154 3152 3150 3148 3145 3142 3139 3134 3129 3123 3117 3111 3105 3100 3093 3088 3083 3078 3073 3068 3064 3060 3054 3049 3045
3160 3159 3158 3156 3155 3154 3152 3151 3149 3146 3142 3138 3134 3129 3123 3117 3111 3106 3100 3095 3090 3085 3080 3075 3069 3063 3058 3053 3048 3043 3038 3033
3157 3156 3155 3153 3151 3150 3149 3146 3143 3139 3135 3131 3127 3121 3115 3109 3102 3096 3090 3086 3081 3075 3068 3061 3056 3051 3045 3040 3036 3032 3028 3024
3153 3153 3151 3150 3148 3145 3143 3140 3135 3131 3127 3122 3116 3110 3104 3097 3091 3083 3078 3074 3069 3063 3057 3052 3047 3040 3035 3031 3026 3021 3017 3011
3147 3146 3145 3143 3142 3140 3139 3135 3130 3125 3120 3114 3108 3100 3094 3088 3082 3076 3070 3064 3058 3052 3047 3041 3035 3028 3024 3020 3015 3011 3005 3000
3143 3142 3140 3138 3138 3136 3133 3129 3125 3119 3112 3105 3098 3091 3084 3077 3071 3065 3058 3051 3045 3040 3036 3033 3026 3021 3016 3011 3007 3002 2997 2992
3139 3137 3137 3135 3132 3129 3126 3120 3114 3108 3102 3095 3089 3082 3075 3068 3061 3055 3048 3042 3036 3032 3027 3023 3019 3013 3008 3004 2999 2994 2990 2985
3135 3134 3132 3128 3127 3124 3119 3113 3106 3099 3093 3086 3078 3071 3066 3061 3055 3048 3041 3034 3028 3024 3018 3013 3009 3004 3001 2996 2991 2987 2982 2978
3132 3130 3127 3123 3120 3116 3111 3104 3098 3092 3085 3078 3071 3064 3059 3053 3046 3039 3032 3025 3019 3015 3011 3007 3003 2999 2995 2989 2984 2981 2976 2970
3127 3124 3121 3117 3112 3108 3101 3095 3090 3084 3077 3070 3062 3056 3048 3041 3034 3027 3021 3016 3010 3006 3003 3000 2997 2993 2988 2983 2979 2973 2967 2962
3122 3119 3114 3109 3105 3099 3093 3088 3082 3076 3069 3061 3054 3047 3039 3033 3027 3020 3013 3008 3003 2999 2997 2993 2991 2987 2983 2976 2971 2966 2960 2954
3115 3112 3108 3102 3096 3090 3086 3080 3074 3068 3061 3053 3046 3040 3033 3025 3018 3011 3005 3000 2995 2994 2992 2988 2985 2981 2976 2970 2964 2959 2953 2946
3108 3103 3098 3093 3088 3083 3077 3072 3066 3060 3052 3045 3038 3030 3022 3015 3010 3004 2998 2994 2990 2989 2986 2983 2979 2975 2969 2964 2958 2952 2945 2937
3099 3094 3091 3086 3080 3075 3069 3063 3057 3050 3043 3035 3028 3021 3016 3009 3002 2997 2992 2989 2987 2984 2981 2976 2972 2968 2962 2957 2952 2945 2938 2930
Wind_Speed
16 13 12 12 9 17 21 22 26 22 24 24 17 17 17 19 25 29 33 32 35 37 38 40 44 49 52 53 53 49 46 46
18 17 14 14 15 19 20 21 24 26 22 21 17 18 21 26 30 31 31 33 35 40 41 46 50 51 54 53 47 43 43 46
18 16 14 14 15 18 19 22 23 17 19 19 21 22 27 29 29 31 34 36 39 42 43 45 51 51 50 46 44 45 46 49
11 10 12 14 16 17 17 16 15 16 19 20 23 24 25 28 29 31 34 38 42 45 47 51 50 48 46 45 45 48 50 50
7 12 15 16 13 12 15 14 14 17 18 17 20 21 24 27 30 35 40 43 45 48 51 49 50 43 44 47 46 47 48 49
6 11 13 16 15 18 17 17 18 17 21 24 27 30 36 38 41 44 46 50 53 50 46 48 44 43 42 43 46 49 49 50
12 8 9 5 12 14 14 19 24 28 30 32 36 40 44 48 51 54 53 54 47 47 42 52 57 49 43 44 46 47 47 48
19 15 11 13 17 18 20 27 29 33 35 41 44 48 49 51 54 52 47 46 47 55 53 54 51 51 48 49 49 43 40 40
20 17 13 15 18 22 25 32 34 33 37 43 47 47 49 49 46 49 51 51 50 52 46 44 49 41 41 45 38 38 42 41
21 17 16 19 22 26 30 34 35 38 42 48 47 47 48 47 49 52 52 50 45 43 39 46 43 43 48 47 41 38 40 42
21 20 22 23 26 29 29 35 42 44 44 43 44 46 46 48 50 49 49 48 44 46 45 42 45 49 45 35 34 38 40 37
23 23 24 26 25 27 35 42 40 40 42 46 46 45 45 46 48 50 50 50 48 50 45 43 43 46 36 32 35 36 33 29
25 26 25 27 28 33 44 40 39 42 44 43 43 43 45 46 48 47 47 47 43 36 34 37 37 31 28 33 34 29 30 32
26 26 29 33 35 39 39 38 39 40 42 42 43 46 48 46 44 43 43 41 40 37 43 40 32 25 32 31 31 32 31 32
26 27 31 34 40 40 38 38 40 42 41 42 44 47 47 47 46 45 41 38 36 33 25 21 21 26 30 32 31 31 31 36
26 28 36 37 37 37 37 40 41 41 41 42 45 46 46 47 45 42 38 35 33 24 23 19 24 28 32 32 32 32 35 41
36 38 39 38 38 37 39 41 41 41 42 43 45 46 46 46 44 39 36 31 25 17 19 22 28 29 34 34 34 35 39 42
36 38 39 39 38 40 41 40 41 43 44 46 47 48 48 46 41 35 31 25 19 18 22 25 26 31 37 36 36 39 41 43
39 39 40 37 40 40 41 43 46 46 48 49 49 48 45 41 36 33 28 24 16 22 23 26 30 35 38 37 37 39 40 42
Wind_Direction
247 253 255 251 248 254 265 264 273 289 290 318 310 298 296 295 304 307 310 303 297 291 296 290 289 295 300 299 301 300 297 294
242 251 257 256 251 255 265 270 277 291 308 316 304 297 288 296 295 301 297 286 290 289 289 295 297 298 298 298 296 294 293 295
234 248 261 276 252 270 270 278 286 303 318 309 299 290 295 305 305 293 291 290 291 293 292 291 297 301 300 297 296 296 298 300
274 281 288 284 272 266 266 283 310 313 306 296 296 299 299 296 294 291 290 290 290 292 294 295 298 306 306 301 301 301 298 294
298 310 312 309 303 292 297 299 293 295 292 291 293 296 293 294 292 291 293 292 295 298 301 303 300 302 303 305 301 297 295 293
353 316 319 308 303 298 290 286 286 303 295 290 288 297 306 306 304 305 304 305 308 308 311 305 292 297 302 299 295 295 295 294
325 341 333 310 336 336 318 314 307 303 305 312 315 314 313 312 311 311 308 308 306 295 298 291 295 300 292 298 304 302 299 297
302 314 316 314 331 330 319 320 318 321 324 323 317 309 306 308 308 306 298 294 298 297 303 302 301 302 311 315 310 306 303 302
280 300 299 311 310 322 316 320 322 317 311 312 313 308 309 309 304 299 301 304 305 303 305 306 311 299 309 309 300 301 305 303
282 284 298 307 311 316 316 318 314 306 307 309 310 308 307 303 301 302 302 304 303 305 306 315 311 307 313 305 302 301 302 302
274 289 297 298 300 306 308 311 307 306 308 308 308 307 304 305 306 307 308 309 311 307 303 303 291 311 296 301 304 304 301 297
265 272 275 284 289 302 311 317 316 314 312 311 308 307 306 308 310 310 309 307 304 302 311 303 302 309 301 306 306 307 300 304
257 265 272 286 299 306 315 316 315 315 313 312 312 311 309 310 310 309 309 308 304 309 305 320 307 301 309 305 306 305 305 305
263 270 283 290 304 317 313 316 318 317 316 313 312 310 312 314 315 315 312 307 301 293 304 310 305 307 300 306 313 306 305 315
271 280 289 298 315 314 318 320 318 318 318 316 314 315 318 322 322 320 314 308 306 305 304 307 306 312 310 310 309 317 318 318
277 287 288 313 312 318 319 319 319 323 321 317 317 321 323 322 320 318 313 309 305 310 299 303 309 311 314 317 320 320 319 318
276 294 311 312 319 320 318 320 324 322 318 319 321 322 323 323 320 317 314 312 307 302 306 304 301 311 318 322 320 320 317 316
303 310 312 317 317 317 321 324 322 321 321 322 323 326 327 323 319 316 313 308 296 296 299 296 307 312 322 320 318 316 319 323
307 309 311 314 319 320 323 322 323 322 323 324 325 325 324 321 318 315 313 309 275 297 296 310 312 313 316 316 317 320 322 324